GW5323 Weather Reports


time (UTC)temp
F
wind
direction
speed
knots
gust
knots
rain 1hr
in
rain 24hr
in
rain mn
in
humidity
%
barometer
mb
20260505053412 47 44 0.0 0.0 0.00 0.00 0.00 99 1011.7
20260505052909 48 113 0.0 0.0 0.00 0.00 0.00 99 1011.6
20260505052406 49 315 0.0 0.0 0.00 0.00 0.00 99 1011.6
20260505051903 49 235 0.0 0.9 0.00 0.00 0.00 99 1011.6
20260505051400 49 34 0.0 0.9 0.00 0.00 0.00 99 1011.7
20260505050858 49 283 0.0 0.9 0.00 0.00 0.00 99 1011.6
20260505050357 49 135 0.0 0.0 0.00 0.00 0.00 99 1011.6
20260505041324 49 69 0.0 0.0 0.00 0.00 0.00 99 1011.6
20260505040821 49 122 0.0 0.9 0.00 0.00 0.00 99 1011.6
20260505040319 50 120 0.0 0.9 0.00 0.00 0.00 99 1011.6
20260505035815 50 101 0.0 1.7 0.00 0.01 0.01 99 1011.6
20260505035311 51 315 0.0 0.0 0.00 0.01 0.01 99 1011.8
20260505034808 51 287 0.0 0.0 0.00 0.01 0.01 99 1011.6
20260505034305 51 299 0.0 0.9 0.00 0.01 0.01 99 1011.5
20260505033802 51 306 0.0 0.9 0.00 0.01 0.01 99 1011.6
20260505033259 51 55 0.0 0.0 0.00 0.01 0.01 98 1011.5
20260505032757 51 89 0.0 0.9 0.00 0.01 0.01 98 1011.5
20260505032253 51 336 0.0 0.0 0.00 0.01 0.01 98 1011.5
20260505031750 51 44 0.0 0.0 0.00 0.01 0.01 98 1011.5
20260505031246 51 44 0.0 0.9 0.00 0.01 0.01 98 1011.5
20260505030744 52 246 0.0 0.9 0.00 0.01 0.01 98 1011.4
20260505030240 52 293 0.0 0.9 0.00 0.01 0.01 98 1011.4
20260505025735 52 6 0.9 1.7 0.00 0.01 0.01 97 1011.5
20260505025234 52 47 0.0 1.7 0.00 0.01 0.01 97 1011.5
20260505024732 52 96 1.7 1.7 0.00 0.01 0.01 97 1011.4
20260505024229 52 44 0.0 0.9 0.00 0.01 0.01 97 1011.5
20260505023726 53 249 1.7 1.7 0.00 0.01 0.01 97 1011.6
20260505023223 56 269 1.7 1.7 0.00 0.01 0.01 91 1011.5
20260505022721 56 269 1.7 1.7 0.00 0.01 0.01 91 1011.6
20260505022217 56 269 1.7 1.7 0.00 0.01 0.01 91 1011.7
20260505021714 56 269 1.7 1.7 0.00 0.01 0.01 91 1011.6
20260505021211 56 269 1.7 1.7 0.00 0.01 0.01 91 1011.3
20260505020707 56 269 1.7 1.7 0.00 0.01 0.01 91 1011.5
20260505020202 56 269 1.7 1.7 0.00 0.01 0.01 91 1011.5
20260505015700 56 269 1.7 1.7 0.00 0.01 0.01 91 1011.2
20260505015156 56 269 1.7 1.7 0.00 0.01 0.01 91 1011.5
20260505014654 62 241 1.7 3.5 0.00 0.01 0.01 69 1011.5
20260505014151 62 241 1.7 3.5 0.00 0.01 0.01 69 1011.4
20260505013648 62 241 1.7 3.5 0.00 0.01 0.01 69 1011.5
20260505013145 62 241 1.7 3.5 0.00 0.01 0.01 69 1011.5
20260505012643 62 241 1.7 3.5 0.00 0.01 0.01 69 1011.3
20260505012140 62 241 1.7 3.5 0.00 0.01 0.01 69 1011.0
20260505011635 62 241 1.7 3.5 0.05 0.01 0.01 69 1011.1
20260505011133 63 38 5.2 11.3 0.05 0.01 0.01 68 1011.4
20260505010633 64 98 2.6 5.2 0.00 0.00 0.00 54 1011.7
20260505010130 64 82 0.9 0.9 0.00 0.00 0.00 56 1011.3
20260505005626 64 154 0.0 1.7 0.00 0.00 0.00 55 1011.1
20260505005124 64 64 0.9 0.9 0.00 0.00 0.00 51 1011.0
20260505004621 65 125 0.9 1.7 0.00 0.00 0.00 51 1010.8
20260505004117 66 103 0.9 0.9 0.00 0.00 0.00 50 1010.9
20260505003615 66 112 0.0 0.9 0.00 0.00 0.00 49 1010.6
20260505003112 66 297 1.7 2.6 0.00 0.00 0.00 47 1010.8
20260505002608 66 84 2.6 2.6 0.00 0.00 0.00 48 1010.8
20260505002107 66 156 0.0 2.6 0.00 0.00 0.00 47 1010.7
20260505001603 66 72 2.6 3.5 0.00 0.00 0.00 47 1010.6
20260505001101 67 193 0.0 1.7 0.00 0.00 0.00 47 1010.7
20260505000558 67 31 2.6 3.5 0.00 0.00 0.00 45 1010.7
20260505000055 68 48 1.7 3.5 0.00 0.00 0.00 45 1010.6
20260504235552 68 41 2.6 3.5 0.00 0.00 0.00 45 1010.6
20260504235049 68 287 1.7 7.8 0.00 0.00 0.00 43 1010.5
20260504234545 69 70 3.5 5.2 0.00 0.00 0.00 44 1010.5
20260504234043 69 60 3.5 3.5 0.00 0.00 0.00 47 1010.4
20260504233538 71 26 1.7 2.6 0.00 0.00 0.00 45 1010.4
20260504233035 72 91 4.3 4.3 0.00 0.00 0.00 43 1010.3
20260504232532 73 147 0.9 1.7 0.00 0.00 0.00 44 1010.1
20260504232030 72 238 1.7 5.2 0.00 0.00 0.00 44 1010.1
20260504231526 72 50 3.5 4.3 0.00 0.00 0.00 44 1010.1
20260504231022 71 125 1.7 3.5 0.00 0.00 0.00 45 1010.1
20260504230519 72 36 1.7 6.1 0.00 0.00 0.00 45 1009.9
20260504230018 73 357 1.7 3.5 0.00 0.00 0.00 44 1009.8
20260504225514 72 337 1.7 6.1 0.00 0.00 0.00 45 1009.9
20260504225011 71 44 4.3 7.8 0.00 0.00 0.00 43 1009.8
20260504224508 72 9 1.7 6.1 0.00 0.00 0.00 43 1009.9
20260504224005 72 42 4.3 8.7 0.00 0.00 0.00 43 1010.1
20260504223501 73 12 3.5 4.3 0.00 0.00 0.00 43 1009.8
20260504222957 71 60 4.3 5.2 0.00 0.00 0.00 44 1009.9
20260504222455 73 329 1.7 11.3 0.00 0.00 0.00 44 1009.9
20260504221952 73 35 4.3 13.9 0.00 0.00 0.00 43 1010.1
20260504221449 73 42 6.1 9.6 0.00 0.00 0.00 43 1009.8
20260504220946 72 86 4.3 9.6 0.00 0.00 0.00 42 1009.8
20260504220442 72 31 0.0 12.2 0.00 0.00 0.00 43 1009.8
20260504215939 76 62 1.7 4.3 0.00 0.00 0.00 40 1009.8
20260504215436 75 330 4.3 13.0 0.00 0.00 0.00 39 1009.8
20260504214933 74 355 1.7 5.2 0.00 0.00 0.00 43 1009.7
20260504214429 74 24 2.6 13.0 0.00 0.00 0.00 42 1009.6
20260504213926 75 68 5.2 8.7 0.00 0.00 0.00 39 1009.7
20260504213422 75 249 2.6 5.2 0.00 0.00 0.00 37 1009.8
20260504212920 75 200 3.5 9.6 0.00 0.00 0.00 38 1009.5
20260504212415 76 97 2.6 3.5 0.00 0.00 0.00 37 1009.6
20260504211913 76 299 1.7 7.0 0.00 0.00 0.00 37 1009.6
20260504211409 75 122 0.0 1.7 0.00 0.00 0.00 41 1009.7
20260504210906 76 152 2.6 5.2 0.00 0.00 0.00 38 1009.7
20260504210403 75 53 2.6 3.5 0.00 0.00 0.00 39 1009.7
20260504205900 75 64 3.5 5.2 0.00 0.00 0.00 39 1009.9
20260504205358 75 26 8.7 11.3 0.00 0.00 0.00 36 1009.9
20260504204856 75 335 2.6 7.0 0.00 0.00 0.00 37 1010.2
20260504204354 75 45 5.2 7.8 0.00 0.00 0.00 40 1009.8
20260504203854 74 34 6.1 11.3 0.00 0.00 0.00 37 1010.2
20260504203350 75 77 1.7 7.8 0.00 0.00 0.00 37 1010.2
20260504202846 75 58 1.7 7.8 0.00 0.00 0.00 39 1010.3
20260504202343 74 52 4.3 8.7 0.00 0.00 0.00 38 1010.2
20260504201839 74 64 5.2 12.2 0.00 0.00 0.00 39 1010.2
20260504201337 75 55 6.1 10.4 0.00 0.00 0.00 39 1010.4
20260504200834 75 53 3.5 5.2 0.00 0.00 0.00 41 1010.4
20260504200331 73 54 1.7 9.6 0.00 0.00 0.00 39 1010.5
20260504195827 75 85 3.5 6.1 0.00 0.00 0.00 36 1010.6
20260504195323 72 78 1.7 9.6 0.00 0.00 0.00 43 1010.5
20260504194820 73 46 1.7 5.2 0.00 0.00 0.00 38 1010.5
20260504194316 73 37 7.0 9.6 0.00 0.00 0.00 37 1010.6
20260504193812 74 14 7.0 13.9 0.00 0.00 0.00 38 1010.7
20260504193310 72 16 4.3 12.2 0.00 0.00 0.00 37 1010.7
20260504192808 74 126 3.5 4.3 0.00 0.00 0.00 36 1010.8
20260504192306 73 72 9.6 13.0 0.00 0.00 0.00 34 1010.9
20260504191804 73 29 1.7 3.5 0.00 0.00 0.00 38 1011.0
20260504191301 72 353 2.6 13.9 0.00 0.00 0.00 35 1011.0
20260504190756 73 63 7.8 12.2 0.00 0.00 0.00 36 1011.0
20260504190253 74 47 2.6 6.1 0.00 0.00 0.00 38 1010.9
20260504185749 74 209 5.2 8.7 0.00 0.00 0.00 39 1011.3
20260504185246 73 276 0.0 8.7 0.00 0.00 0.00 41 1011.3
20260504184742 73 75 5.2 7.0 0.00 0.00 0.00 39 1011.3
20260504184238 74 38 7.0 9.6 0.00 0.00 0.00 36 1011.3
20260504183734 73 273 0.9 5.2 0.00 0.00 0.00 36 1011.3
20260504183232 72 21 2.6 9.6 0.00 0.00 0.00 42 1011.4
20260504182730 72 313 1.7 5.2 0.00 0.00 0.00 40 1011.8
20260504182226 71 44 5.2 12.2 0.00 0.00 0.00 38 1011.7
20260504181724 71 63 5.2 14.8 0.00 0.00 0.00 38 1011.8
20260504181221 70 40 2.6 5.2 0.00 0.00 0.00 41 1011.9
20260504180720 73 269 3.5 4.3 0.00 0.00 0.00 41 1011.8
20260504180219 72 311 1.7 7.8 0.00 0.00 0.00 39 1011.8
20260504175716 71 63 3.5 13.9 0.00 0.00 0.00 41 1012.0
20260504175212 72 149 3.5 12.2 0.00 0.00 0.00 40 1011.9
20260504174710 70 282 3.5 13.0 0.00 0.00 0.00 39 1012.1
20260504174208 71 261 1.7 7.8 0.00 0.00 0.00 40 1012.2
20260504173704 72 346 5.2 5.2 0.00 0.00 0.00 38 1012.2
20260504173202 69 71 1.7 3.5 0.00 0.00 0.00 44 1012.2
20260504172658 71 73 4.3 12.2 0.00 0.00 0.00 42 1012.5
20260504172154 71 87 2.6 10.4 0.00 0.00 0.00 40 1012.5
20260504171650 69 302 2.6 14.8 0.00 0.00 0.00 45 1012.5
20260504171148 69 238 1.7 11.3 0.00 0.00 0.00 40 1012.6
20260504170644 70 300 4.3 8.7 0.00 0.00 0.00 43 1012.8
20260504170142 69 264 2.6 11.3 0.00 0.00 0.00 43 1013.0
20260504151028 65 57 3.5 4.3 0.00 0.00 0.00 48 1014.5
20260504150525 64 302 0.9 4.3 0.00 0.00 0.00 49 1014.5
20260504140956 60 283 0.0 3.5 0.00 0.00 0.00 50 1015.0
20260504140453 59 57 4.3 5.2 0.00 0.00 0.00 50 1014.9
20260504130417 51 16 4.3 4.3 0.00 0.00 0.00 65 1015.2
20260504110304 32 243 0.0 1.7 0.00 0.00 0.00 99 1015.8
20260504100222 30 263 0.0 1.7 0.00 0.00 0.00 99 1015.6
20260504081615 29 248 1.7 1.7 0.00 0.00 0.00 99 1016.1
20260504081111 29 240 1.7 1.7 0.00 0.00 0.00 99 1016.0
20260504080608 29 275 0.9 1.7 0.00 0.00 0.00 99 1016.4
20260504080104 29 229 0.9 1.7 0.00 0.00 0.00 99 1016.1